Location: Asheville, NC
(35.6000°N, 82.5500°W)
Time: 21:08:44
(UTC-05:00)

KKS-1 - Pass Details

Date: 05 January 2018
Orbit: 637 x 651 km, 98.3° (Epoch: 20 January)

Event Time Altitude Azimuth Distance (km) Brightness Sun altitude
Rises 18:14:39 0° 7° (N) 2,942 ? -8.8°
Reaches altitude 10° 18:16:53 10° 3° (N) 2,030 ? -9.3°
Maximum altitude 18:21:12 54° 286° (WNW) 779 ? -10.1°
Drops below altitude 10° 18:25:29 10° 209° (SSW) 2,023 ? -10.9°
Sets 18:27:43 0° 205° (SSW) 2,930 ? -11.3°
